Location: Newark
(13.6797°N, 8.5297°E)
Time: 06:17:14
(UTC+00:00)

A-11 Canister half - Pass Details

Date: 23 January 2020
Orbit: 1517 x 1683 km, 47.2° (Epoch: 17 February)

Event Time Altitude Azimuth Distance (km) Brightness Sun altitude
Rises 05:48:55 0° 332° (NNW) 4,660 11.1 -1.9°
Reaches altitude 10° 05:52:36 10° 344° (NNW) 3,689 10.7 -1.1°
Maximum altitude 06:00:13 28° 40° (NE) 2,600 10.5 0.6°
Drops below altitude 10° 06:07:58 10° 95° (E) 3,776 12.9 2.4°
Sets 06:11:45 0° 107° (ESE) 4,788 14.6 3.3°
